Weather History for Goldsboro, NC

Change the Weather History Date:

Sunday, July 1, 2012

  Actual Average Record
Temperature  
Mean Temperature 85 °F -  
Max Temperature 100 °F 88 °F 100 °F (2012)
Min Temperature 70 °F 69 °F 64 °F (2000)
Cooling Degree Days 20    
Growing Degree Days 35 (Base 50)    
Moisture  
Dew Point 77 °F    
Average Humidity 86    
Maximum Humidity 100    
Minimum Humidity 48    
Precipitation  
Precipitation 0.00 in - - ()
Sea Level Pressure  
Sea Level Pressure 29.91 in    
Wind  
Wind Speed 6 mph (South)    
Max Wind Speed 18 mph    
Max Gust Speed 26 mph    
Visibility 10 miles    
Events Thunderstorm    
Averages and records for this station are not official NWS values.
T = Trace of Precipitation, MM = Missing Value Source: NWS Daily Summary

Daily Weather History Graph

Daily Weather History Graph

Search for Another Location

Airport:

Trip Planner

Search our weather history database for the weather conditions in past years. The results will help you decide how hot, cold, wet, or windy it might be!

Date:

Astronomy

Jul. 01, 2012 Rise Set
Actual Time 6:00 AM EDT 8:30 PM EDT
Civil Twilight 5:31 AM EDT 9:00 PM EDT
Nautical Twilight 4:54 AM EDT 9:37 PM EDT
Astronomical Twilight 4:13 AM EDT 10:17 PM EDT
Moon 6:32 PM EDT (7/1) 3:45 AM EDT (7/1)
Length of Visible Light 15h 29m
Length of Day
14h 29m
Waxing Gibbous, 94% of the Moon is Illuminated
Jul 1
Waxing Gibbous
Jul 3
Full
Jul 10
Last Quarter
Jul 19
New
Jul 26
First Quarter

Hourly Weather History & Observations

Time (EDT) Temp. Heat Index Dew Point Humidity Pressure Visibility Wind Dir Wind Speed Gust Speed Precip Events Conditions
12:55 AM 82.8 °F 97.5 °F 82.8 °F 100% 29.88 in 10.0 mi SW 3.5 mph - N/A   Mostly Cloudy
1:55 AM 82.2 °F 95.4 °F 82.2 °F 100% 29.88 in 10.0 mi South 5.8 mph - N/A   Clear
2:55 AM 81.0 °F 90.4 °F 80.8 °F 99% 29.86 in 10.0 mi South 5.8 mph - N/A   Clear
3:55 AM 79.2 °F - 79.2 °F 100% 29.86 in 10.0 mi East 5.8 mph - N/A   Clear
4:29 AM 78.8 °F - 78.8 °F 100% 29.88 in 9.0 mi NNE 8.1 mph - N/A   Clear
4:55 AM 77.9 °F - 77.9 °F 100% 29.89 in 7.0 mi East 4.6 mph - N/A   Clear
5:55 AM 77.5 °F - 77.5 °F 100% 29.89 in 6.0 mi SE 3.5 mph - N/A   Clear
6:55 AM 77.9 °F - 77.9 °F 100% 29.90 in 6.0 mi SE 3.5 mph - N/A   Clear
7:55 AM 79.7 °F - 79.7 °F 100% 29.91 in 8.0 mi East 3.5 mph - N/A   Partly Cloudy
8:55 AM 82.0 °F 94.7 °F 82.0 °F 100% 29.93 in 10.0 mi South 5.8 mph - N/A   Partly Cloudy
9:55 AM 86.2 °F 112.4 °F 86.2 °F 100% 29.93 in 10.0 mi Variable 3.5 mph - N/A   Partly Cloudy
10:55 AM 90.3 °F 123.4 °F 86.9 °F 90% 29.93 in 10.0 mi Variable 3.5 mph - N/A   Partly Cloudy
11:55 AM 93.0 °F 125.2 °F 86.0 °F 80% 29.93 in 10.0 mi SW 4.6 mph - N/A   Partly Cloudy
12:55 PM 96.4 °F 122.6 °F 82.8 °F 65% 29.93 in 10.0 mi SW 5.8 mph - N/A   Mostly Cloudy
1:55 PM 100.6 °F 119.0 °F 78.1 °F 49% 29.93 in 10.0 mi West 8.1 mph - N/A   Partly Cloudy
2:55 PM 100.8 °F 120.5 °F 78.8 °F 50% 29.90 in 10.0 mi West 11.5 mph - N/A   Partly Cloudy
3:55 PM 100.8 °F 118.4 °F 78.1 °F 48% 29.86 in 10.0 mi West 10.4 mph - N/A   Partly Cloudy
4:25 PM 87.8 °F 90.4 °F 66.2 °F 49% 29.86 in 10.0 mi NNW 18.4 mph 26.5 mph N/A Thunderstorm Thunderstorm
4:55 PM 84.7 °F 86.6 °F 65.3 °F 52% 29.84 in 10.0 mi SSW 12.7 mph 18.4 mph N/A   Partly Cloudy
5:55 PM 79.2 °F - 76.6 °F 92% 29.91 in 10.0 mi SSE 9.2 mph - N/A   Clear
6:55 PM 73.8 °F - 72.5 °F 96% 29.96 in 10.0 mi SSE 13.8 mph 24.2 mph N/A   Clear
7:55 PM 73.0 °F - 67.3 °F 82% 29.96 in 10.0 mi Variable 6.9 mph - N/A   Clear
8:55 PM 71.8 °F - 68.5 °F 89% 29.95 in 10.0 mi SSE 5.8 mph - N/A   Clear
9:55 PM 71.1 °F - 70.0 °F 96% 29.96 in 10.0 mi SSW 3.5 mph - N/A   Clear
10:55 PM 70.0 °F - 70.0 °F 100% 29.99 in 10.0 mi WSW 6.9 mph - N/A   Clear
11:55 PM 70.2 °F - 70.2 °F 100% 29.96 in 10.0 mi SW 5.8 mph - N/A   Clear